TimeMDT,TemperatureF,Dew PointF,Humidity,Sea Level PressureIn,VisibilityMPH,Wind Direction,Wind SpeedMPH,Gust SpeedMPH,PrecipitationIn,Events,Conditions,WindDirDegrees,DateUTC
12:56 AM,37.9,30.0,73,29.60,-9999.0,SW,10.4,-,N/A,,Unknown,230,2013-03-23 06:56:00
1:56 AM,36.0,30.0,79,29.62,-9999.0,SE,6.9,-,N/A,,Unknown,130,2013-03-23 07:56:00
2:56 AM,35.1,28.9,78,29.64,-9999.0,WSW,6.9,-,N/A,,Unknown,240,2013-03-23 08:56:00
3:56 AM,34.0,28.0,79,29.65,-9999.0,NNE,5.8,-,N/A,,Unknown,30,2013-03-23 09:56:00
4:56 AM,32.0,27.0,82,29.66,-9999.0,NNE,8.1,-,N/A,,Unknown,20,2013-03-23 10:56:00
5:56 AM,32.0,28.0,85,29.69,-9999.0,North,5.8,-,N/A,,Unknown,10,2013-03-23 11:56:00
6:56 AM,33.1,28.0,82,29.70,-9999.0,North,4.6,-,N/A,,Unknown,350,2013-03-23 12:56:00
7:56 AM,34.0,28.9,82,29.71,-9999.0,ENE,4.6,-,N/A,,Unknown,70,2013-03-23 13:56:00
8:56 AM,28.9,28.9,100,29.76,-9999.0,East,16.1,-,N/A,,Unknown,80,2013-03-23 14:56:00
9:56 AM,30.0,28.9,96,29.75,-9999.0,East,16.1,-,N/A,,Unknown,100,2013-03-23 15:56:00
10:56 AM,30.0,28.9,96,29.76,-9999.0,ESE,16.1,-,N/A,,Unknown,110,2013-03-23 16:56:00
11:56 AM,28.9,28.0,96,29.77,-9999.0,East,16.1,-,N/A,,Unknown,100,2013-03-23 17:56:00
12:56 PM,28.0,27.0,96,29.78,-9999.0,East,15.0,-,0.01,,Unknown,90,2013-03-23 18:56:00
1:56 PM,28.0,26.1,92,29.77,-9999.0,East,17.3,-,0.01,,Unknown,80,2013-03-23 19:56:00
2:56 PM,27.0,25.0,92,29.83,-9999.0,NE,20.7,26.5,0.04,,Unknown,40,2013-03-23 20:56:00
3:56 PM,26.1,24.1,92,29.88,-9999.0,NNE,23.0,-,0.01,,Unknown,20,2013-03-23 21:56:00
4:56 PM,21.9,19.0,89,29.96,-9999.0,North,32.2,43.7,N/A,,Unknown,10,2013-03-23 22:56:00
5:56 PM,19.9,18.0,92,30.02,-9999.0,North,33.4,39.1,N/A,,Unknown,10,2013-03-23 23:56:00
6:56 PM,19.0,16.0,88,30.07,-9999.0,North,29.9,41.4,0.01,,Unknown,360,2013-03-24 00:56:00
7:56 PM,19.0,16.0,88,30.11,-9999.0,North,24.2,35.7,N/A,,Unknown,360,2013-03-24 01:56:00
8:56 PM,19.0,15.1,85,30.16,-9999.0,North,26.5,35.7,N/A,,Unknown,360,2013-03-24 02:56:00
9:56 PM,19.9,16.0,85,30.17,-9999.0,North,19.6,-,N/A,,Unknown,360,2013-03-24 03:56:00
10:56 PM,18.0,14.0,84,30.19,-9999.0,North,19.6,26.5,N/A,,Unknown,350,2013-03-24 04:56:00
11:56 PM,18.0,14.0,84,30.19,-9999.0,North,21.9,-,N/A,,Unknown,350,2013-03-24 05:56:00